Location: Newark
(48.4472°N, 1.4892°E)
Time: 02:15:24
(UTC+00:00)

Vanguard 2 Rocket - Pass Details

Date: 17 November 2019
Orbit: 554 x 3326 km, 32.9° (Epoch: 13 December)

Event Time Altitude Azimuth Distance (km) Brightness Sun altitude
Exits shadow 04:40:54 18° 214° (SSW) 2,447 8.8 -23.6°
Maximum altitude 04:43:57 24° 181° (S) 2,479 9.1 -23.0°
Drops below altitude 10° 04:51:38 10° 135° (SE) 4,225 10.9 -21.8°
Sets 04:56:55 0° 124° (SE) 5,770 12.0 -20.9°
